Weather History for Anchorage Merrill, AK

Change the Weather History Date:

Sunday, July 20, 2014

  Actual Average Record
Temperature  
Mean Temperature 60 °F -  
Max Temperature 71 °F 66 °F 77 °F (2003)
Min Temperature 51 °F 52 °F 48 °F (2011)
Degree Days  
Heating Degree Days 5    
Growing Degree Days 10 (Base 50)    
Moisture  
Dew Point 47 °F    
Average Humidity 69    
Maximum Humidity 89    
Minimum Humidity 39    
Precipitation  
Precipitation 0.25 in - - ()
Sea Level Pressure  
Sea Level Pressure 29.76 in    
Wind  
Wind Speed 5 mph (North)    
Max Wind Speed 12 mph    
Max Gust Speed 16 mph    
Visibility 10 miles    
Events Rain    
Averages and records for this station are not official NWS values.
T = Trace of Precipitation, MM = Missing Value Source: NWS Daily Summary

Daily Weather History Graph

Daily Weather History Graph

Search for Another Location

Airport:

Trip Planner

Search our weather history database for the weather conditions in past years. The results will help you decide how hot, cold, wet, or windy it might be!

Date:

Astronomy

Jul. 20, 2014 Rise Set
Actual Time 5:02 AM AKDT 11:07 PM AKDT
Civil Twilight 3:39 AM AKDT 12:28 AM AKDT
Nautical Twilight Sun does not rise Sun does not rise
Astronomical Twilight Sun does not rise Sun does not rise
Moon 1:03 AM AKDT 5:29 PM AKDT
Length of Visible Light 20h 48m
Length of Day
18h 04m
Waning Crescent, 32% of the Moon is Illuminated
Jul 20
Waning Crescent
Jul 26
New
Aug 3
First Quarter
Aug 10
Full
Aug 17
Last Quarter

Hourly Weather History & Observations

Time (AKDT) Temp. Dew Point Humidity Pressure Visibility Wind Dir Wind Speed Gust Speed Precip Events Conditions
12:53 AM 53.1 °F 48.0 °F 83% 29.65 in 9.0 mi South 9.2 mph - 0.05 in Rain Light Rain
1:53 AM 52.0 °F 48.9 °F 89% 29.66 in 8.0 mi Calm Calm - 0.11 in Rain Light Rain
2:53 AM 52.0 °F 48.0 °F 86% 29.67 in 8.0 mi NNE 3.5 mph - N/A Rain Light Rain
3:53 AM 52.0 °F 48.0 °F 86% 29.66 in 10.0 mi East 4.6 mph - 0.05 in Rain Light Rain
4:53 AM 51.1 °F 48.0 °F 89% 29.65 in 10.0 mi East 5.8 mph - 0.04 in Rain Light Rain
5:53 AM 51.1 °F 46.9 °F 86% 29.66 in 10.0 mi Calm Calm - 0.00 in   Overcast
6:53 AM 52.0 °F 48.0 °F 86% 29.67 in 10.0 mi Calm Calm - N/A   Overcast
7:53 AM 53.1 °F 48.9 °F 86% 29.69 in 10.0 mi Calm Calm - N/A   Partly Cloudy
8:13 AM 53.6 °F 48.2 °F 82% 29.69 in 10.0 mi East 3.5 mph - N/A   Mostly Cloudy
8:53 AM 54.0 °F 48.0 °F 80% 29.71 in 10.0 mi North 5.8 mph - N/A   Overcast
9:53 AM 55.0 °F 46.9 °F 74% 29.73 in 10.0 mi Variable 3.5 mph - N/A   Overcast
10:00 AM 55.4 °F 46.4 °F 72% 29.72 in 10.0 mi NNW 3.5 mph - N/A   Overcast
10:53 AM 55.9 °F 46.0 °F 69% 29.74 in 10.0 mi Calm Calm - N/A   Overcast
11:18 AM 55.4 °F 46.4 °F 72% 29.74 in 10.0 mi Calm Calm - N/A   Overcast
11:25 AM 57.2 °F 46.4 °F 67% 29.74 in 10.0 mi Variable 3.5 mph - N/A   Overcast
11:53 AM 55.9 °F 46.0 °F 69% 29.75 in 10.0 mi Calm Calm - N/A   Overcast
12:13 PM 57.2 °F 46.4 °F 67% 29.75 in 10.0 mi NW 5.8 mph - N/A   Overcast
12:24 PM 57.2 °F 46.4 °F 67% 29.76 in 10.0 mi NNW 9.2 mph - N/A   Overcast
12:31 PM 57.2 °F 46.4 °F 67% 29.76 in 10.0 mi North 11.5 mph - N/A   Overcast
12:51 PM 57.2 °F 46.4 °F 67% 29.77 in 10.0 mi NNW 9.2 mph - N/A   Overcast
12:53 PM 57.0 °F 46.9 °F 69% 29.78 in 10.0 mi NNW 10.4 mph - N/A   Overcast
1:53 PM 61.0 °F 43.0 °F 52% 29.79 in 10.0 mi NNE 6.9 mph - N/A   Mostly Cloudy
2:53 PM 60.1 °F 45.0 °F 57% 29.81 in 10.0 mi North 8.1 mph - N/A   Overcast
3:53 PM 64.0 °F 45.0 °F 50% 29.81 in 10.0 mi North 8.1 mph 16.1 mph N/A   Scattered Clouds
4:53 PM 66.0 °F 46.0 °F 48% 29.82 in 10.0 mi NE 5.8 mph - N/A   Partly Cloudy
5:53 PM 69.1 °F 45.0 °F 42% 29.82 in 10.0 mi NE 5.8 mph - N/A   Clear
6:53 PM 69.1 °F 43.0 °F 39% 29.83 in 10.0 mi North 6.9 mph - N/A   Mostly Cloudy
7:53 PM 63.0 °F 51.1 °F 65% 29.86 in 10.0 mi WNW 8.1 mph - N/A   Scattered Clouds
8:53 PM 63.0 °F 50.0 °F 63% 29.88 in 10.0 mi WNW 6.9 mph - N/A   Partly Cloudy
9:53 PM 63.0 °F 46.0 °F 54% 29.91 in 10.0 mi WSW 3.5 mph - N/A   Partly Cloudy
10:53 PM 62.1 °F 46.9 °F 58% 29.93 in 10.0 mi Calm Calm - N/A   Clear
11:53 PM 59.0 °F 48.9 °F 69% 29.94 in 10.0 mi South 3.5 mph - N/A   Partly Cloudy